Theta_e
307 308 310 314 315 314 314 314 315 316 317 317 316 317 316 317 318 316 318 317 318 318 318 320 321 321 322 324 327 323 324 326 327 329 330 330 328 328 331 336 337 340 341
305 306 309 314 313 313 312 313 314 314 315 314 316 315 315 316 316 315 314 316 316 318 317 319 319 319 319 320 323 324 324 322 324 326 327 328 328 325 327 330 335 338 340
305 305 307 312 311 311 312 313 314 314 314 314 314 315 316 316 315 314 313 313 315 315 316 317 318 318 317 319 318 321 323 325 324 324 323 325 326 326 325 327 331 335 337
303 303 307 309 310 311 311 312 312 312 313 314 314 314 314 314 312 311 312 312 313 313 315 314 315 316 316 317 317 318 320 322 323 320 320 322 323 324 326 325 328 330 334
302 302 306 308 308 309 310 311 311 313 312 312 313 312 311 310 309 310 310 311 311 312 312 312 313 313 314 315 315 315 317 318 321 317 317 318 319 320 324 325 326 327 329
302 301 303 305 306 306 308 310 310 311 311 311 310 309 309 308 307 308 309 309 309 310 310 310 311 311 312 313 313 314 313 316 315 314 314 315 316 316 318 321 324 327 328
302 301 300 302 303 304 307 308 309 309 309 308 307 307 307 306 305 305 306 306 307 308 308 308 309 310 309 310 310 311 313 312 310 310 311 312 312 313 315 317 320 323 327
301 301 300 300 301 302 306 306 307 307 306 305 305 305 304 303 302 303 303 304 305 306 305 306 306 307 307 308 308 309 308 307 307 307 308 309 308 309 312 315 317 320 324
301 300 300 300 300 301 301 303 303 303 303 302 302 302 301 299 299 301 301 302 303 303 304 304 304 304 304 305 305 305 304 305 305 305 305 304 304 306 309 311 315 317 321
301 300 300 300 300 300 301 300 300 300 300 300 300 299 299 298 298 299 299 300 302 302 303 302 303 303 303 303 302 302 302 303 302 302 302 303 304 305 308 310 312 315 317
301 301 300 300 300 300 300 300 300 299 299 299 299 299 299 298 298 298 299 299 300 301 301 301 302 302 302 301 301 301 301 301 301 301 302 302 303 305 306 308 310 312 316
301 301 300 300 300 300 300 300 300 299 299 299 299 299 299 299 299 299 298 299 299 299 300 300 301 301 300 300 300 300 300 300 300 300 301 302 303 304 306 307 308 310 312
301 301 300 300 300 300 300 300 299 299 299 299 299 299 299 298 298 298 298 298 298 299 299 300 300 300 299 300 300 300 299 299 299 300 300 302 303 303 305 306 307 309 311
301 300 300 300 300 300 300 300 299 299 299 299 298 298 298 298 298 297 298 298 299 299 299 299 299 299 299 299 299 299 299 299 299 299 300 301 301 303 304 305 306 307 309
300 300 299 300 300 300 300 300 299 299 299 298 298 298 297 297 297 297 298 298 299 299 298 297 298 298 298 298 298 299 299 299 299 299 300 300 301 302 303 304 305 306 308
300 299 299 300 300 300 300 299 299 299 298 298 298 297 297 296 296 297 298 298 298 297 297 297 297 297 297 298 298 299 299 300 300 300 300 300 301 301 302 303 304 305 306
300 299 299 299 299 300 299 299 299 298 298 298 297 297 297 296 297 298 298 298 297 297 296 296 297 297 297 297 298 299 299 300 300 300 300 300 300 301 300 302 303 303 305
300 299 299 299 299 299 299 299 298 297 298 298 297 297 296 296 297 297 298 298 297 297 297 297 297 297 297 297 298 298 298 299 299 300 300 300 300 300 300 300 302 303 304
300 299 299 300 300 299 299 298 298 298 298 297 297 297 296 296 297 297 298 297 297 297 297 297 298 298 298 298 298 298 298 298 299 300 300 300 300 300 300 300 300 302 303
300 299 299 300 300 299 299 298 298 298 298 298 297 297 296 296 296 296 297 297 296 296 297 297 298 299 299 298 298 299 299 299 300 301 300 300 300 300 299 299 301 301 303
299 299 299 300 300 299 299 298 298 298 298 297 297 297 296 295 296 296 296 296 296 296 296 297 298 298 298 298 300 299 299 298 300 298 299 299 300 298 298 300 301 302 302
300 299 299 300 299 299 298 298 297 298 298 297 297 297 296 296 296 296 296 296 296 296 296 295 296 297 298 298 298 298 299 298 298 297 298 299 300 298 298 300 302 302 302
300 299 299 299 299 299 298 298 298 298 299 298 298 297 297 296 296 296 296 296 296 296 295 295 295 296 297 297 297 298 299 299 298 298 298 298 299 298 298 301 302 302 303
300 299 299 299 299 298 298 297 298 298 299 298 298 297 297 296 296 297 297 297 296 296 295 295 294 294 295 295 295 296 296 297 298 298 297 298 298 297 298 300 302 304 305
300 299 299 299 299 298 298 298 298 298 298 298 298 298 297 297 296 297 297 297 296 296 296 296 295 295 294 294 294 295 296 296 296 298 297 298 299 298 298 298 302 303 304
300 299 299 299 299 298 298 298 298 298 298 298 298 298 297 297 297 296 297 297 297 296 296 296 296 295 295 294 294 294 294 296 297 298 297 298 299 298 297 298 299 301 301
Wind_Speed
8 8 11 12 14 16 17 17 15 15 15 15 15 15 16 16 16 18 18 18 18 18 18 18 17 17 17 18 17 13 14 15 15 16 16 16 14 13 14 16 14 13 11
5 8 11 14 15 17 17 16 16 14 14 14 14 14 15 15 15 15 18 17 18 18 18 18 18 17 17 17 17 17 15 14 16 16 16 15 13 11 12 14 15 14 15
7 9 12 16 17 17 16 15 15 14 13 13 13 14 14 15 16 17 18 18 17 18 18 18 18 17 16 17 16 17 17 15 14 16 16 12 11 11 12 14 14 14 15
8 10 12 15 16 16 15 15 15 14 12 12 13 14 15 16 17 17 17 17 16 16 17 18 18 18 18 17 17 17 16 16 16 17 12 12 13 13 14 14 15 15 15
9 10 12 15 15 15 14 14 13 14 13 14 13 13 15 15 15 16 16 15 15 17 17 18 17 19 19 17 17 16 16 16 18 15 15 13 14 13 16 16 17 17 17
8 10 11 13 13 14 13 13 13 13 13 13 14 14 14 14 14 14 15 15 15 17 17 17 17 17 18 18 19 17 17 17 17 15 15 16 16 14 17 16 18 18 18
7 8 9 11 12 12 12 12 12 12 13 14 14 15 14 14 14 14 15 15 15 16 17 18 18 17 18 18 19 18 19 18 17 17 15 16 16 17 19 19 19 20 19
7 8 8 9 10 10 10 10 10 11 12 13 14 15 15 15 15 14 14 14 16 17 17 17 17 18 18 18 18 19 19 20 18 17 15 15 17 19 19 18 19 20 21
7 7 8 9 9 8 9 10 10 10 12 12 13 14 15 14 15 16 15 15 17 16 16 17 17 18 19 20 19 19 19 19 20 16 15 14 13 15 17 18 19 20 21
7 7 8 9 9 8 8 10 10 11 11 10 11 13 14 12 14 16 16 18 18 17 17 17 17 18 19 19 17 19 19 21 13 14 15 14 14 16 18 20 20 20 22
5 6 8 9 9 9 8 9 9 9 10 10 11 13 13 13 13 16 16 18 19 18 19 17 19 19 18 16 17 18 20 14 16 17 16 15 16 18 19 21 22 22 22
6 6 7 7 8 9 8 9 9 9 9 9 12 14 13 15 14 16 16 17 18 18 18 19 19 19 16 17 17 17 16 18 19 18 18 18 19 20 20 21 23 23 24
4 6 7 7 8 9 9 9 9 9 10 11 13 14 14 15 15 15 17 18 18 19 19 20 20 18 19 18 18 18 18 19 19 19 18 20 21 23 23 22 23 24 25
4 6 6 7 8 8 9 9 9 10 11 12 12 13 14 14 15 17 17 17 18 18 20 20 20 20 20 18 18 18 18 18 18 21 21 21 23 24 25 24 25 25 26
4 4 5 5 7 8 8 9 10 10 10 11 11 12 14 15 15 16 16 16 17 18 18 19 19 20 20 20 19 18 18 19 18 19 20 22 24 25 25 26 26 27 27
3 4 4 5 6 8 9 10 9 9 9 9 10 12 14 14 15 15 14 15 16 16 17 17 18 19 20 20 20 19 20 20 19 19 20 23 24 25 26 27 27 28 28
2 2 3 5 6 7 7 8 7 8 7 8 10 11 14 14 15 14 14 14 15 16 16 15 16 18 19 20 21 21 22 23 23 22 22 21 22 23 25 28 27 28 28
2 2 2 3 5 6 7 7 7 7 8 9 10 11 14 13 14 15 14 14 15 16 17 16 16 16 18 18 21 22 24 25 22 22 22 20 19 23 25 28 28 29 29
2 2 2 3 5 7 7 7 6 6 7 8 10 11 14 13 14 15 14 15 15 16 16 15 16 16 17 18 20 23 23 23 20 18 18 21 20 23 26 29 32 32 32
4 3 3 3 5 7 6 6 6 5 6 8 9 11 13 13 14 14 14 15 15 17 18 18 18 19 18 18 21 21 23 21 20 11 20 21 18 22 28 28 31 33 29
4 3 2 3 5 6 6 7 6 6 6 6 8 10 12 13 14 14 15 15 16 15 16 19 21 20 20 20 20 21 19 19 15 27 18 20 20 23 27 27 30 31 24
4 3 3 2 4 5 5 6 5 6 5 6 8 9 11 11 12 13 15 15 16 17 15 17 19 21 20 20 13 18 6 17 20 27 20 20 19 28 29 25 29 24 22
6 4 3 2 3 3 4 4 5 4 5 6 8 9 11 11 12 13 14 15 16 16 16 16 18 19 19 19 20 14 4 4 17 13 19 21 22 25 29 24 25 23 23
7 6 5 4 2 3 3 3 4 5 6 6 7 8 9 10 10 11 13 14 14 15 15 15 14 16 16 17 19 16 20 16 5 7 15 20 26 22 27 26 25 19 18
10 9 7 5 4 4 4 4 3 5 5 5 6 8 8 9 9 10 12 13 13 14 15 16 16 15 13 13 16 18 22 19 16 7 9 17 21 20 26 29 27 25 26
11 9 8 7 6 6 6 5 5 6 6 6 7 8 8 8 8 9 11 11 12 13 14 16 16 16 17 17 15 15 18 17 14 11 7 14 15 20 23 25 27 26 26
Wind_Direction
36 20 18 10 3 358 354 354 356 358 358 360 356 358 1 1 1 3 1 3 358 358 357 355 357 354 348 350 2 343 325 331 336 334 329 331 329 326 340 346 346 340 339
22 10 11 10 1 357 356 357 358 357 359 358 7 1 359 1 2 0 358 358 354 356 355 353 358 357 354 341 345 351 350 321 323 327 327 321 318 322 330 335 335 334 338
22 7 1 5 0 0 4 7 5 3 2 1 8 6 2 2 359 356 354 354 353 352 350 353 353 352 349 350 340 337 344 347 342 334 324 313 316 309 323 325 328 329 331
19 8 6 6 6 5 4 3 7 11 9 9 9 9 3 -0 353 353 354 355 355 351 352 346 345 346 346 346 345 337 334 342 344 340 329 311 309 311 316 319 321 318 321
17 13 8 10 10 8 8 5 4 5 6 7 8 5 359 356 357 354 355 354 352 349 347 343 343 337 336 338 340 336 333 326 336 326 322 317 314 298 308 307 312 312 309
17 12 9 16 12 9 9 6 7 4 4 5 360 358 358 358 357 354 352 349 347 344 341 338 336 336 334 331 333 331 326 333 321 324 311 307 300 298 306 308 307 305 300
14 12 9 19 15 14 16 14 12 9 2 356 355 357 355 353 355 352 349 346 345 342 339 337 335 331 328 325 325 324 324 321 319 308 298 297 295 293 295 294 296 295 297
22 18 17 15 17 24 29 18 11 4 359 355 353 353 348 348 353 356 355 352 346 342 340 338 333 330 327 325 323 319 318 317 314 306 300 293 293 293 296 292 287 290 291
25 22 17 15 18 18 21 16 9 1 356 353 351 350 349 350 351 350 349 349 347 343 340 336 336 332 330 326 321 318 318 314 308 304 300 296 294 299 297 299 292 287 288
25 19 15 12 10 10 1 356 4 360 1 1 356 352 351 350 347 346 343 342 344 342 340 336 336 332 330 325 327 325 322 316 315 307 303 297 297 299 303 301 292 288 283
24 17 10 7 4 1 359 352 357 355 360 1 358 351 349 344 341 344 340 340 340 339 338 336 334 332 331 330 326 325 323 321 317 308 301 298 298 298 300 300 296 286 283
19 12 7 5 5 2 358 354 350 352 350 351 352 350 348 343 340 341 339 339 339 337 337 336 336 335 333 329 325 325 321 316 312 307 301 299 299 299 297 297 294 289 282
21 10 4 3 4 0 358 355 350 348 348 348 348 350 347 344 342 342 341 341 341 339 338 337 337 335 330 327 323 319 316 314 310 306 302 301 300 299 298 294 291 287 280
20 11 3 1 3 359 355 353 349 348 349 348 349 352 352 348 345 344 343 342 342 340 337 337 336 334 332 327 322 317 316 313 309 306 302 301 300 300 296 295 290 286 281
10 9 5 360 360 355 354 354 352 351 350 352 354 354 353 348 346 345 344 345 346 342 340 338 337 336 334 330 325 322 318 314 309 305 303 301 301 301 298 294 291 284 280
14 0 357 357 354 356 355 354 353 350 351 354 353 352 353 350 346 344 345 349 351 349 341 340 337 336 333 330 327 324 320 315 310 306 304 304 301 300 299 295 291 284 278
4 356 359 354 351 352 351 350 352 349 352 352 353 353 353 351 349 348 346 345 345 342 346 339 336 336 333 331 326 325 324 318 314 307 304 306 302 303 301 298 293 286 278
308 341 342 339 341 344 346 353 355 354 356 357 355 354 353 354 354 350 346 347 344 339 336 329 334 332 333 330 328 323 321 317 312 312 307 305 312 307 303 299 293 287 279
298 295 306 325 342 347 350 351 350 355 357 359 358 356 355 356 354 349 343 340 340 334 332 335 335 329 331 328 327 320 318 313 304 306 312 318 306 310 309 299 291 285 279
261 269 312 324 342 343 350 352 350 353 1 1 358 355 355 355 353 348 344 342 347 341 339 334 332 333 332 323 328 314 321 309 294 304 316 317 314 321 308 302 293 289 280
249 256 284 313 341 350 351 353 348 355 354 354 353 352 352 353 352 351 347 342 343 343 345 338 331 330 333 329 317 327 317 329 317 343 323 320 316 324 316 300 301 291 272
239 246 268 309 336 339 346 342 334 332 334 340 347 345 349 347 348 350 351 346 346 343 342 346 340 328 330 330 336 322 323 325 341 325 331 331 327 334 329 310 305 297 277
226 225 249 266 301 322 331 331 332 316 320 337 342 342 345 346 350 352 351 349 347 346 346 346 338 337 329 329 333 327 315 313 323 316 325 331 325 335 332 315 311 292 281
214 209 215 232 253 294 305 307 321 314 322 328 329 330 340 345 346 348 350 346 343 340 342 343 338 334 334 329 331 332 321 318 325 307 320 329 328 342 333 317 330 317 302
204 208 212 220 230 246 265 274 293 298 305 315 323 326 333 336 334 340 346 346 344 343 338 336 333 330 330 326 336 328 321 323 319 305 321 326 328 338 341 331 337 8 4
202 207 210 219 230 237 241 251 270 285 303 310 318 321 326 326 327 329 336 340 339 341 340 331 330 329 331 328 319 332 318 325 318 320 312 315 327 334 344 337 350 7 3